JST1532 YSSY-YMML

Flight info

Callsign JST1532
Flight time 1h 11m
Altitude 36000
Route MARUB7/34R WOL H65 LEECE Q29 ML
Aircraft A320/M-SDE3FGHIRWY/LB1

Departure

Time 2026-05-04 07:58
Airport Sydney Kingsford Smith International Airport (YSSY)

Arrival

Time 2026-05-04 09:10
Airport Melbourne Airport (YMML)
Time Latitude Longitude Altitude Speed Heading
2026-05-04 07:03 -33.93626 151.17898 30 ft 0 kts 99°
2026-05-04 07:03 -33.93625 151.17895 30 ft 0 kts 99°
2026-05-04 07:40 -33.93623 151.17874 30 ft 4 kts 96°
2026-05-04 07:40 -33.93619 151.17842 30 ft 4 kts 105°
2026-05-04 07:40 -33.93611 151.17821 30 ft 3 kts 180°
2026-05-04 07:40 -33.93608 151.17821 30 ft 0 kts 190°
2026-05-04 07:45 -33.93618 151.17819 30 ft 3 kts 190°
2026-05-04 07:46 -33.93627 151.17817 30 ft 2 kts 190°
2026-05-04 07:46 -33.93654 151.17810 30 ft 6 kts 192°
2026-05-04 07:46 -33.93701 151.17796 30 ft 9 kts 194°
2026-05-04 07:46 -33.93767 151.17775 30 ft 9 kts 195°
2026-05-04 07:47 -33.93838 151.17763 30 ft 12 kts 178°
2026-05-04 07:47 -33.93918 151.17785 29 ft 11 kts 169°
2026-05-04 07:47 -33.94003 151.17810 29 ft 14 kts 167°
2026-05-04 07:49 -33.94602 151.17902 30 ft 15 kts 168°
2026-05-04 07:49 -33.94710 151.17930 30 ft 17 kts 167°
2026-05-04 07:49 -33.94835 151.17962 30 ft 18 kts 168°
2026-05-04 07:50 -33.94924 151.17986 30 ft 12 kts 168°
2026-05-04 07:50 -33.95006 151.18007 30 ft 12 kts 168°
2026-05-04 07:50 -33.95071 151.18026 31 ft 8 kts 155°
2026-05-04 07:50 -33.95100 151.18093 30 ft 11 kts 87°
2026-05-04 07:51 -33.95084 151.18191 30 ft 12 kts 78°
2026-05-04 07:51 -33.95066 151.18293 30 ft 14 kts 78°
2026-05-04 07:51 -33.95051 151.18377 30 ft 9 kts 77°
2026-05-04 07:51 -33.95039 151.18439 30 ft 9 kts 81°
2026-05-04 07:52 -33.95071 151.18508 30 ft 11 kts 147°
2026-05-04 07:52 -33.95139 151.18560 30 ft 12 kts 148°
2026-05-04 07:52 -33.95204 151.18641 30 ft 15 kts 137°
2026-05-04 07:52 -33.95302 151.18712 30 ft 18 kts 160°
2026-05-04 07:53 -33.95434 151.18750 30 ft 21 kts 168°
2026-05-04 07:54 -33.96596 151.19052 30 ft 23 kts 168°
2026-05-04 07:55 -33.96705 151.19075 30 ft 15 kts 179°
2026-05-04 07:55 -33.96817 151.19065 30 ft 17 kts 177°
2026-05-04 07:55 -33.96944 151.19096 30 ft 20 kts 167°
2026-05-04 07:55 -33.97043 151.19123 30 ft 8 kts 168°
2026-05-04 07:56 -33.97101 151.19138 30 ft 9 kts 167°
2026-05-04 07:56 -33.97122 151.19200 30 ft 11 kts 60°
2026-05-04 07:56 -33.97085 151.19299 27 ft 16 kts 77°
2026-05-04 07:56 -33.97005 151.19373 26 ft 19 kts 340°
2026-05-04 07:57 -33.96929 151.19338 24 ft 0 kts 347°
2026-05-04 07:57 -33.96858 151.19319 24 ft 39 kts 347°
2026-05-04 07:57 -33.96337 151.19185 28 ft 109 kts 348°
2026-05-04 07:58 -33.95427 151.18945 128 ft 150 kts 347°
2026-05-04 07:58 -33.94408 151.18724 793 ft 149 kts
2026-05-04 07:58 -33.93456 151.19136 1528 ft 149 kts 36°
2026-05-04 07:58 -33.92836 151.20175 2109 ft 168 kts 67°
2026-05-04 07:59 -33.92928 151.21690 2502 ft 199 kts 110°
2026-05-04 07:59 -33.93565 151.23214 3076 ft 207 kts 108°
2026-05-04 07:59 -33.93826 151.24877 3740 ft 203 kts 82°
2026-05-04 07:59 -33.93791 151.26587 4483 ft 206 kts 82°
2026-05-04 08:00 -33.93738 151.28393 4922 ft 231 kts 82°
2026-05-04 08:00 -33.93664 151.30506 4991 ft 273 kts 82°
2026-05-04 08:00 -33.93589 151.32851 5010 ft 286 kts 83°
2026-05-04 08:02 -33.93275 151.50221 10196 ft 320 kts 97°
2026-05-04 08:02 -33.94014 151.52860 10507 ft 348 kts 117°
2026-05-04 08:02 -33.95538 151.55224 10906 ft 367 kts 138°
2026-05-04 08:03 -33.97694 151.56927 11562 ft 373 kts 158°
2026-05-04 08:03 -34.00192 151.57775 12302 ft 375 kts 176°
2026-05-04 08:03 -34.02780 151.57712 13011 ft 374 kts 194°
2026-05-04 08:03 -34.05200 151.56742 13726 ft 370 kts 212°
2026-05-04 08:04 -34.07271 151.54955 14385 ft 364 kts 230°
2026-05-04 08:04 -34.08897 151.52590 15069 ft 363 kts 238°
2026-05-04 08:04 -34.10440 151.50168 15758 ft 365 kts 238°
2026-05-04 08:04 -34.11983 151.47755 16415 ft 369 kts 238°
2026-05-04 08:05 -34.13563 151.45297 17076 ft 372 kts 238°
2026-05-04 08:05 -34.15160 151.42816 17742 ft 376 kts 238°
2026-05-04 08:05 -34.16774 151.40312 18392 ft 380 kts 238°
2026-05-04 08:05 -34.18408 151.37775 19019 ft 382 kts 238°
2026-05-04 08:06 -34.20047 151.35233 19661 ft 384 kts 238°
2026-05-04 08:06 -34.21693 151.32678 20333 ft 386 kts 238°
2026-05-04 08:06 -34.23342 151.30108 20964 ft 388 kts 238°
2026-05-04 08:06 -34.24993 151.27535 21577 ft 390 kts 238°
2026-05-04 08:08 -34.36808 151.09026 25183 ft 406 kts 239°
2026-05-04 08:08 -34.38538 151.06307 25611 ft 409 kts 239°
2026-05-04 08:10 -34.52765 150.83891 28010 ft 426 kts 240°
2026-05-04 08:11 -34.54573 150.81039 28011 ft 426 kts 240°
2026-05-04 08:11 -34.59898 150.72414 28013 ft 425 kts 241°
2026-05-04 08:12 -34.63352 150.66625 28007 ft 426 kts 242°
2026-05-04 08:12 -34.66833 150.60804 28012 ft 426 kts 241°
2026-05-04 08:13 -34.70328 150.54985 28009 ft 426 kts 241°
2026-05-04 08:13 -34.72076 150.52067 28175 ft 429 kts 242°
2026-05-04 08:13 -34.73834 150.49127 28659 ft 431 kts 241°
2026-05-04 08:14 -34.75602 150.46170 29098 ft 434 kts 241°
2026-05-04 08:14 -34.77384 150.43191 29527 ft 437 kts 242°
2026-05-04 08:14 -34.79179 150.40189 29923 ft 440 kts 242°
2026-05-04 08:16 -34.91781 150.19102 33491 ft 429 kts 243°
2026-05-04 08:16 -34.93503 150.16210 34135 ft 424 kts 243°
2026-05-04 08:16 -34.95226 150.13306 34653 ft 421 kts 243°
2026-05-04 08:17 -34.96935 150.10418 35180 ft 419 kts 243°
2026-05-04 08:17 -34.98636 150.07537 35595 ft 418 kts 243°
2026-05-04 08:17 -35.00334 150.04659 35949 ft 418 kts 243°
2026-05-04 08:17 -35.02032 150.01777 36031 ft 418 kts 243°
2026-05-04 08:19 -35.15568 149.78817 36052 ft 417 kts 243°
2026-05-04 08:20 -35.18953 149.73046 36060 ft 418 kts 243°
2026-05-04 08:20 -35.22338 149.67267 36067 ft 418 kts 243°
2026-05-04 08:21 -35.25721 149.61483 36063 ft 418 kts 243°
2026-05-04 08:21 -35.29100 149.55694 36083 ft 418 kts 243°
2026-05-04 08:22 -35.32456 149.49943 36075 ft 418 kts 244°
2026-05-04 08:24 -35.45969 149.26695 36082 ft 419 kts 244°
2026-05-04 08:24 -35.49314 149.20913 36074 ft 419 kts 244°
2026-05-04 08:25 -35.52684 149.15063 36069 ft 419 kts 244°
2026-05-04 08:25 -35.56046 149.09220 36062 ft 419 kts 244°
2026-05-04 08:27 -35.69485 148.85812 36090 ft 419 kts 244°
2026-05-04 08:28 -35.72836 148.79944 36096 ft 419 kts 244°
2026-05-04 08:28 -35.76168 148.74105 36090 ft 419 kts 244°
2026-05-04 08:29 -35.79513 148.68239 36091 ft 419 kts 244°
2026-05-04 08:31 -35.92885 148.44649 36099 ft 420 kts 244°
2026-05-04 08:33 -36.05666 148.21863 36080 ft 422 kts 244°
2026-05-04 08:35 -36.19042 147.97932 36076 ft 424 kts 244°
2026-05-04 08:35 -36.22408 147.91889 36099 ft 424 kts 244°
2026-05-04 08:37 -36.34087 147.70866 36072 ft 424 kts 244°
2026-05-04 08:38 -36.37418 147.64819 36087 ft 424 kts 244°
2026-05-04 08:38 -36.40743 147.58769 36085 ft 424 kts 244°
2026-05-04 08:40 -36.54050 147.34511 36082 ft 425 kts 244°
2026-05-04 08:41 -36.57371 147.28425 36067 ft 425 kts 244°
2026-05-04 08:41 -36.60695 147.22332 36059 ft 426 kts 244°
2026-05-04 08:42 -36.63993 147.16281 36054 ft 425 kts 244°
2026-05-04 08:42 -36.67305 147.10171 36087 ft 425 kts 244°
2026-05-04 08:43 -36.70609 147.04071 36055 ft 424 kts 244°
2026-05-04 08:43 -36.73900 146.97982 36058 ft 424 kts 244°
2026-05-04 08:44 -36.77195 146.91888 36044 ft 423 kts 244°
2026-05-04 08:46 -36.90330 146.67473 34463 ft 424 kts 245°
2026-05-04 08:46 -36.91969 146.64404 33819 ft 425 kts 245°
2026-05-04 08:46 -36.93628 146.61291 33032 ft 426 kts 245°
2026-05-04 08:46 -36.95260 146.58228 32172 ft 430 kts 245°
2026-05-04 08:47 -36.96924 146.55102 31285 ft 434 kts 245°
2026-05-04 08:47 -36.98594 146.51969 30671 ft 431 kts 246°
2026-05-04 08:47 -37.00255 146.48862 30085 ft 428 kts 246°
2026-05-04 08:47 -37.01906 146.45778 29409 ft 425 kts 246°
2026-05-04 08:48 -37.03540 146.42717 28770 ft 421 kts 246°
2026-05-04 08:48 -37.05155 146.39682 28159 ft 417 kts 246°
2026-05-04 08:48 -37.06751 146.36671 27546 ft 414 kts 246°
2026-05-04 08:48 -37.08334 146.33676 26919 ft 411 kts 245°
2026-05-04 08:49 -37.09906 146.30705 26342 ft 407 kts 245°
2026-05-04 08:50 -37.19007 146.13516 23117 ft 386 kts 243°
2026-05-04 08:50 -37.20482 146.10714 22519 ft 384 kts 243°
2026-05-04 08:51 -37.21947 146.07928 21967 ft 381 kts 243°
2026-05-04 08:51 -37.23399 146.05163 21409 ft 378 kts 242°
2026-05-04 08:51 -37.24837 146.02423 20963 ft 373 kts 242°
2026-05-04 08:51 -37.26256 145.99724 20481 ft 368 kts 242°
2026-05-04 08:52 -37.27659 145.97055 19961 ft 364 kts 241°
2026-05-04 08:52 -37.29047 145.94407 19434 ft 361 kts 241°
2026-05-04 08:52 -37.30422 145.91782 18927 ft 358 kts 241°
2026-05-04 08:52 -37.31765 145.89217 18397 ft 356 kts 241°
2026-05-04 08:53 -37.33117 145.86635 17847 ft 351 kts 242°
2026-05-04 08:54 -37.42228 145.69242 14213 ft 328 kts 241°
2026-05-04 08:55 -37.43486 145.66834 13969 ft 330 kts 241°
2026-05-04 08:55 -37.44745 145.64418 13724 ft 330 kts 241°
2026-05-04 08:55 -37.46030 145.62028 13446 ft 330 kts 239°
2026-05-04 08:55 -37.47370 145.59686 13180 ft 329 kts 238°
2026-05-04 08:57 -37.56765 145.43673 11374 ft 320 kts 239°
2026-05-04 09:01 -37.73199 145.15176 7348 ft 269 kts 240°
2026-05-04 09:01 -37.74278 145.13306 7047 ft 254 kts 240°
2026-05-04 09:01 -37.75295 145.11551 6703 ft 243 kts 240°
2026-05-04 09:01 -37.76271 145.09854 6533 ft 238 kts 240°
2026-05-04 09:02 -37.77241 145.08152 6411 ft 240 kts 241°
2026-05-04 09:02 -37.78230 145.06410 6037 ft 244 kts 241°
2026-05-04 09:02 -37.79216 145.04685 5773 ft 239 kts 241°
2026-05-04 09:02 -37.80192 145.02987 5219 ft 238 kts 242°
2026-05-04 09:03 -37.81098 145.01262 4713 ft 231 kts 250°
2026-05-04 09:03 -37.81636 144.99398 4180 ft 222 kts 262°
2026-05-04 09:03 -37.81957 144.97498 3682 ft 218 kts 263°
2026-05-04 09:03 -37.82269 144.95720 3599 ft 196 kts 263°
2026-05-04 09:04 -37.82554 144.94120 3544 ft 179 kts 264°
2026-05-04 09:04 -37.82767 144.92587 3478 ft 176 kts 266°
2026-05-04 09:04 -37.82948 144.91105 3405 ft 166 kts 267°
2026-05-04 09:04 -37.83117 144.89705 3315 ft 157 kts 268°
2026-05-04 09:05 -37.83261 144.88394 3188 ft 143 kts 274°
2026-05-04 09:05 -37.82988 144.87285 3050 ft 129 kts 307°
2026-05-04 09:05 -37.82254 144.86658 2848 ft 133 kts 338°
2026-05-04 09:05 -37.81359 144.86488 2725 ft 128 kts 342°
2026-05-04 09:06 -37.80504 144.86334 2494 ft 122 kts 342°
2026-05-04 09:07 -37.74617 144.85226 1365 ft 124 kts 345°
2026-05-04 09:08 -37.73759 144.85067 1197 ft 123 kts 349°
2026-05-04 09:08 -37.72897 144.84902 1117 ft 126 kts 351°
2026-05-04 09:08 -37.72016 144.84693 1021 ft 127 kts 352°
2026-05-04 09:08 -37.71136 144.84509 932 ft 129 kts 355°
2026-05-04 09:09 -37.70254 144.84361 741 ft 130 kts 358°
2026-05-04 09:09 -37.69371 144.84253 586 ft 128 kts 353°
2026-05-04 09:09 -37.68508 144.84075 404 ft 126 kts 355°
2026-05-04 09:09 -37.67681 144.83921 372 ft 109 kts 353°
2026-05-04 09:10 -37.67116 144.83827 383 ft 43 kts 351°
2026-05-04 09:10 -37.66985 144.83850 386 ft 19 kts 17°
2026-05-04 09:10 -37.66872 144.83897 391 ft 12 kts 21°
2026-05-04 09:10 -37.66843 144.83913 391 ft 3 kts 23°
2026-05-04 09:11 -37.66830 144.83919 392 ft 1 kts 24°
2026-05-04 09:11 -37.66821 144.83924 392 ft 1 kts 24°
2026-05-04 09:11 -37.66813 144.83929 392 ft 0 kts 24°
2026-05-04 09:12 -37.66812 144.83930 392 ft 1 kts 24°
2026-05-04 09:14 -37.67007 144.84234 386 ft 16 kts 168°
2026-05-04 09:14 -37.67108 144.84251 384 ft 16 kts 171°
2026-05-04 09:14 -37.67146 144.84257 383 ft 6 kts 174°
2026-05-04 09:14 -37.67166 144.84261 383 ft 7 kts 171°
2026-05-04 09:15 -37.67252 144.84279 381 ft 18 kts 171°
2026-05-04 09:15 -37.67358 144.84299 379 ft 14 kts 172°
2026-05-04 09:15 -37.67444 144.84315 377 ft 16 kts 171°
2026-05-04 09:15 -37.67540 144.84333 374 ft 10 kts 171°